| time (UTC) | temp C | wind direction | speed KPH | gust KPH | rain 1hr cm | rain 24hr cm | rain mn cm | humidity % | barometer mb |
| 20260507023033 | 5 | 213 | 0.0 | 0.0 | 0.00 | 0.00 | 0.00 | 77 | 1011.5 |
| 20260507021532 | 5 | 213 | 0.0 | 0.0 | 0.00 | 0.00 | 0.00 | 77 | 1011.5 |
| 20260507020042 | 5 | 213 | 0.0 | 0.0 | 0.00 | 0.00 | 0.00 | 77 | 1011.6 |
| 20260507014534 | 5 | 213 | 0.0 | 0.0 | 0.00 | 0.00 | 0.00 | 76 | 1011.7 |
| 20260507013026 | 5 | 213 | 0.0 | 0.0 | 0.00 | 0.00 | 0.00 | 76 | 1011.8 |
| 20260507011522 | 5 | 213 | 0.0 | 0.0 | 0.00 | 0.00 | 0.00 | 76 | 1011.9 |
| 20260507010026 | 6 | 213 | 0.0 | 0.0 | 0.00 | 0.00 | 0.00 | 76 | 1011.9 |
| 20260507004518 | 6 | 213 | 0.0 | 0.0 | 0.00 | 0.00 | 0.00 | 76 | 1012.0 |
| 20260507003020 | 6 | 213 | 0.0 | 0.0 | 0.00 | 0.00 | 0.00 | 76 | 1012.1 |
| 20260507001522 | 6 | 213 | 0.0 | 0.0 | 0.00 | 0.00 | 0.00 | 75 | 1012.1 |
| 20260507000013 | 7 | 213 | 0.0 | 1.6 | 0.00 | 0.00 | 0.00 | 76 | 1012.2 |
| 20260506234509 | 7 | 213 | 0.0 | 0.0 | 0.00 | 0.00 | 0.00 | 75 | 1012.2 |
| 20260506233007 | 7 | 213 | 0.0 | 1.6 | 0.00 | 0.00 | 0.00 | 75 | 1012.3 |
| 20260506231512 | 8 | 213 | 0.0 | 0.0 | 0.00 | 0.00 | 0.00 | 75 | 1012.3 |
| 20260506230006 | 8 | 213 | 0.0 | 0.0 | 0.00 | 0.00 | 0.00 | 75 | 1012.3 |
| 20260506224506 | 9 | 213 | 0.0 | 0.0 | 0.00 | 0.00 | 0.00 | 76 | 1012.4 |
| 20260506223004 | 10 | 213 | 0.0 | 0.0 | 0.00 | 0.00 | 0.00 | 76 | 1012.5 |
| 20260506221504 | 11 | 213 | 0.0 | 4.8 | 0.00 | 0.00 | 0.00 | 76 | 1012.6 |
| 20260506220004 | 11 | 213 | 6.4 | 9.7 | 0.00 | 0.00 | 0.00 | 76 | 1012.7 |
| 20260506214505 | 11 | 213 | 6.4 | 11.3 | 0.00 | 0.00 | 0.00 | 76 | 1012.7 |
| 20260506213004 | 11 | 213 | 3.2 | 8.0 | 0.00 | 0.00 | 0.00 | 76 | 1012.7 |
| 20260506211600 | 12 | 213 | 6.4 | 9.7 | 0.00 | 0.00 | 0.00 | 76 | 1012.7 |
| 20260506210058 | 12 | 213 | 4.8 | 11.3 | 0.00 | 0.00 | 0.00 | 76 | 1012.5 |
| 20260506204621 | 12 | 213 | 3.2 | 6.4 | 0.00 | 0.00 | 0.00 | 76 | 1012.4 |
| 20260506203056 | 12 | 213 | 4.8 | 9.7 | 0.00 | 0.00 | 0.00 | 76 | 1012.4 |
| 20260506201555 | 12 | 213 | 3.2 | 6.4 | 0.00 | 0.00 | 0.00 | 76 | 1012.2 |
| 20260506200055 | 13 | 213 | 4.8 | 8.0 | 0.00 | 0.00 | 0.00 | 75 | 1012.1 |
| 20260506194604 | 13 | 213 | 4.8 | 8.0 | 0.00 | 0.00 | 0.00 | 75 | 1011.9 |
| 20260506193058 | 13 | 213 | 3.2 | 6.4 | 0.00 | 0.00 | 0.00 | 76 | 1011.8 |
| 20260506191553 | 13 | 213 | 3.2 | 6.4 | 0.00 | 0.00 | 0.00 | 75 | 1011.5 |
| 20260506190053 | 13 | 213 | 3.2 | 8.0 | 0.00 | 0.00 | 0.00 | 73 | 1011.4 |
| 20260506184553 | 14 | 213 | 6.4 | 9.7 | 0.00 | 0.00 | 0.00 | 73 | 1011.3 |
| 20260506183056 | 15 | 213 | 6.4 | 11.3 | 0.00 | 0.00 | 0.00 | 73 | 1011.1 |
| 20260506181550 | 16 | 213 | 6.4 | 17.7 | 0.00 | 0.00 | 0.00 | 66 | 1011.1 |
| 20260506180051 | 16 | 244 | 9.7 | 12.9 | 0.00 | 0.00 | 0.00 | 61 | 1011.1 |
| 20260506174548 | 17 | 259 | 6.4 | 11.3 | 0.00 | 0.00 | 0.00 | 56 | 1011.2 |
| 20260506173049 | 17 | 259 | 3.2 | 12.9 | 0.00 | 0.00 | 0.00 | 53 | 1011.3 |
| 20260506171554 | 17 | 259 | 6.4 | 11.3 | 0.00 | 0.00 | 0.00 | 54 | 1011.4 |
| 20260506170047 | 17 | 259 | 6.4 | 17.7 | 0.00 | 0.00 | 0.00 | 50 | 1011.4 |
| 20260506164544 | 18 | 257 | 4.8 | 11.3 | 0.00 | 0.00 | 0.00 | 49 | 1011.4 |
| 20260506163044 | 18 | 257 | 4.8 | 11.3 | 0.00 | 0.00 | 0.00 | 49 | 1011.5 |
| 20260506161540 | 17 | 257 | 3.2 | 9.7 | 0.00 | 0.00 | 0.00 | 51 | 1011.5 |
| 20260506160038 | 18 | 257 | 4.8 | 9.7 | 0.00 | 0.00 | 0.00 | 50 | 1011.7 |
| 20260506154536 | 17 | 257 | 0.0 | 4.8 | 0.00 | 0.00 | 0.00 | 47 | 1011.8 |
| 20260506153034 | 17 | 270 | 0.0 | 3.2 | 0.00 | 0.00 | 0.00 | 49 | 1012.0 |
| 20260506151536 | 17 | 270 | 1.6 | 8.0 | 0.00 | 0.00 | 0.00 | 47 | 1012.2 |
| 20260506150031 | 17 | 270 | 4.8 | 11.3 | 0.00 | 0.00 | 0.00 | 48 | 1012.3 |
| 20260506144529 | 17 | 270 | 6.4 | 11.3 | 0.00 | 0.00 | 0.00 | 51 | 1012.6 |
| 20260506143026 | 17 | 270 | 3.2 | 6.4 | 0.00 | 0.00 | 0.00 | 48 | 1012.7 |
| 20260506141525 | 16 | 270 | 0.0 | 4.8 | 0.00 | 0.00 | 0.00 | 52 | 1013.0 |
| 20260506140028 | 17 | 270 | 3.2 | 8.0 | 0.00 | 0.00 | 0.00 | 53 | 1013.1 |
| 20260506134522 | 17 | 270 | 6.4 | 12.9 | 0.00 | 0.00 | 0.00 | 49 | 1013.3 |
| 20260506133038 | 18 | 270 | 3.2 | 12.9 | 0.00 | 0.00 | 0.00 | 48 | 1013.4 |
| 20260506131523 | 17 | 270 | 1.6 | 11.3 | 0.00 | 0.00 | 0.00 | 50 | 1013.7 |
| 20260506130016 | 17 | 270 | 6.4 | 14.5 | 0.00 | 0.00 | 0.00 | 49 | 1013.8 |
| 20260506124515 | 16 | 270 | 3.2 | 11.3 | 0.00 | 0.00 | 0.00 | 51 | 1013.9 |
| 20260506123014 | 16 | 270 | 4.8 | 11.3 | 0.00 | 0.00 | 0.00 | 50 | 1014.1 |
| 20260506121512 | 17 | 270 | 0.0 | 4.8 | 0.00 | 0.00 | 0.00 | 51 | 1014.2 |
| 20260506120010 | 16 | 270 | 3.2 | 9.7 | 0.00 | 0.00 | 0.00 | 51 | 1014.4 |
| 20260506114506 | 15 | 270 | 4.8 | 11.3 | 0.00 | 0.00 | 0.00 | 56 | 1014.5 |
| 20260506113009 | 15 | 270 | 3.2 | 12.9 | 0.00 | 0.00 | 0.00 | 55 | 1014.7 |
| 20260506111504 | 16 | 269 | 9.7 | 14.5 | 0.00 | 0.00 | 0.00 | 52 | 1014.6 |
| 20260506110103 | 16 | 241 | 4.8 | 12.9 | 0.00 | 0.00 | 0.00 | 52 | 1014.8 |
| 20260506104600 | 15 | 234 | 4.8 | 11.3 | 0.00 | 0.00 | 0.00 | 59 | 1014.8 |
| 20260506103059 | 15 | 236 | 3.2 | 6.4 | 0.00 | 0.00 | 0.00 | 58 | 1015.0 |
| 20260506101552 | 15 | 236 | 4.8 | 11.3 | 0.00 | 0.00 | 0.00 | 62 | 1015.1 |
| 20260506100051 | 15 | 236 | 4.8 | 11.3 | 0.00 | 0.00 | 0.00 | 64 | 1015.2 |
| 20260506094544 | 14 | 236 | 4.8 | 12.9 | 0.00 | 0.00 | 0.00 | 65 | 1015.2 |
| 20260506093040 | 13 | 236 | 1.6 | 6.4 | 0.00 | 0.00 | 0.00 | 67 | 1015.3 |
| 20260506091537 | 13 | 236 | 3.2 | 9.7 | 0.00 | 0.00 | 0.00 | 70 | 1015.3 |
| 20260506090033 | 12 | 236 | 1.6 | 6.4 | 0.00 | 0.00 | 0.00 | 74 | 1015.4 |
| 20260506084538 | 12 | 236 | 3.2 | 8.0 | 0.00 | 0.00 | 0.00 | 77 | 1015.5 |
| 20260506083029 | 12 | 236 | 0.0 | 4.8 | 0.00 | 0.00 | 0.00 | 77 | 1015.5 |
| 20260506081527 | 11 | 236 | 1.6 | 6.4 | 0.00 | 0.00 | 0.00 | 77 | 1015.5 |
| 20260506073009 | 9 | 236 | 0.0 | 3.2 | 0.00 | 0.00 | 0.00 | 77 | 1015.6 |
| 20260506071507 | 7 | 236 | 0.0 | 3.2 | 0.00 | 0.00 | 0.00 | 78 | 1015.7 |
| 20260506061554 | 3 | 236 | 0.0 | 0.0 | 0.00 | 0.00 | 0.00 | 78 | 1015.5 |
| 20260506044533 | 2 | 236 | 0.0 | 0.0 | 0.00 | 0.00 | 0.00 | 77 | 1015.3 |
| 20260506043036 | 2 | 236 | 0.0 | 0.0 | 0.00 | 0.00 | 0.00 | 77 | 1015.4 |
| 20260506041529 | 3 | 236 | 0.0 | 0.0 | 0.00 | 0.00 | 0.00 | 77 | 1015.4 |
| 20260506040036 | 3 | 236 | 0.0 | 3.2 | 0.00 | 0.00 | 0.00 | 77 | 1015.4 |
| 20260506034528 | 3 | 236 | 0.0 | 1.6 | 0.00 | 0.00 | 0.00 | 77 | 1015.4 |
| 20260506033024 | 3 | 236 | 0.0 | 0.0 | 0.00 | 0.00 | 0.00 | 77 | 1015.5 |
| 20260506031521 | 3 | 236 | 0.0 | 3.2 | 0.00 | 0.00 | 0.00 | 77 | 1015.7 |
| 20260506030018 | 4 | 236 | 0.0 | 0.0 | 0.00 | 0.00 | 0.00 | 77 | 1015.7 |
| 20260506024518 | 5 | 236 | 0.0 | 0.0 | 0.00 | 0.00 | 0.00 | 77 | 1015.7 |